Track STARLINK-4337 now! 10-day predictions STARLINK-4337 is classified as:
1 53053U 22077L 22224.58334491 -.01213861 00000-0 -37610-1 0 9995 2 53053 97.6552 44.6595 0001769 82.6638 194.7215 15.36484805 1308